Wind_Speed
6 7 8 8 8 9 9 9 9 9 11 12 12 12 13 14 15 16 17 17 18 19 20 21 22 22 22 22 22 22 23 22 22 22 22 21 20 20 20 20 20 20 19 19
6 7 8 10 9 10 10 10 10 11 11 12 13 13 14 15 17 17 18 18 19 20 20 21 22 22 22 22 22 22 23 22 22 21 21 21 20 20 19 19 18 18 18 19
7 9 10 10 10 10 10 11 11 11 12 13 14 14 15 16 17 18 18 19 20 20 22 22 22 22 22 22 22 22 21 21 21 20 20 19 19 18 18 18 17 17 18 18
8 9 9 9 9 10 11 11 12 13 14 15 15 16 16 17 18 19 19 20 20 21 22 22 22 23 23 22 22 22 20 19 19 19 19 17 17 17 17 17 16 16 17 17
8 9 9 10 10 11 12 12 13 13 15 15 16 17 17 18 19 21 21 21 20 20 21 21 21 21 21 22 22 20 19 17 18 18 19 18 18 17 16 16 16 16 17 17
9 10 10 11 12 13 14 15 15 16 16 16 16 17 17 18 19 20 21 21 21 20 21 20 19 19 20 22 21 20 18 17 17 18 18 18 18 17 16 17 16 16 17 18
10 11 12 12 13 14 15 16 17 17 17 17 17 17 17 18 17 19 19 19 19 19 19 19 18 18 18 18 18 16 16 17 18 18 18 18 18 17 17 17 15 16 17 17
11 11 12 13 14 15 16 16 17 18 18 17 17 17 16 16 17 18 19 18 18 18 17 17 16 16 17 17 16 16 16 16 17 18 17 18 18 18 18 17 15 16 16 16
11 12 13 14 14 15 16 16 17 17 18 18 17 17 16 17 18 18 18 18 17 17 17 16 16 16 17 17 17 16 16 16 17 17 17 17 17 17 17 16 15 16 16 16
12 13 13 14 15 16 16 16 16 17 18 19 18 17 18 17 17 17 17 18 18 18 17 17 17 17 17 17 16 16 16 16 16 16 17 17 16 16 16 15 15 15 16 16
13 13 14 15 15 15 15 16 16 17 18 19 20 19 18 17 16 17 17 17 17 17 17 18 18 19 18 18 17 17 17 17 17 17 17 17 16 16 16 16 15 15 16 17
13 14 15 16 16 16 17 17 17 18 18 19 19 18 17 16 17 18 17 17 17 17 18 18 18 18 18 18 18 18 18 17 17 17 17 16 16 16 16 16 15 16 17 17
15 15 16 16 17 17 17 18 18 18 18 18 17 16 16 16 17 16 17 17 17 18 18 18 18 18 18 18 18 18 18 17 17 17 16 16 16 16 16 16 16 17 17 17
15 15 16 17 17 16 16 16 16 16 16 16 16 16 16 16 16 16 16 17 17 18 18 18 17 17 17 17 16 17 17 18 17 16 15 15 16 17 16 16 16 16 16 15
15 15 15 16 16 16 15 15 15 15 15 16 16 16 16 16 16 16 16 17 17 18 18 17 16 16 16 16 15 16 17 17 16 15 15 15 16 16 15 15 15 15 15 14
16 16 16 16 16 16 16 15 15 14 15 15 16 15 15 16 16 16 17 17 18 18 17 16 16 16 16 16 16 16 16 16 15 15 15 15 15 15 15 14 14 14 14 13
16 17 17 16 17 16 15 14 14 15 15 16 16 16 15 16 17 17 17 17 18 18 18 17 17 16 16 16 16 16 16 16 16 15 15 15 15 15 14 14 14 14 13 13
17 17 17 18 17 16 15 15 15 15 16 16 17 17 16 16 17 17 17 17 18 18 18 18 17 16 16 16 16 16 16 16 16 16 16 15 15 14 14 14 14 13 13 13
17 18 18 18 17 17 16 16 16 16 15 16 17 17 17 17 18 18 17 17 18 18 18 18 17 16 17 16 16 17 17 16 16 17 16 15 14 14 13 13 13 13 13 13
18 19 19 19 19 18 17 16 17 17 16 17 17 18 18 18 18 18 18 18 18 18 18 18 18 18 17 17 17 18 17 17 17 16 15 15 15 14 13 13 13 13 13 13
20 20 20 19 19 18 18 17 18 18 18 18 18 18 18 19 19 19 20 19 19 19 20 20 19 19 18 18 18 18 17 16 16 16 16 15 15 14 14 13 13 13 13 14
21 21 20 20 20 19 19 18 19 19 19 19 20 20 19 20 20 21 21 21 21 20 20 20 20 20 20 19 19 18 17 17 17 16 16 15 14 14 13 13 13 14 13 14
22 22 22 22 22 21 21 20 21 21 20 20 21 21 21 21 22 22 22 22 22 21 21 21 21 21 20 20 19 18 17 17 17 16 15 14 13 13 13 12 13 13 13 14
24 24 24 24 24 23 22 22 22 22 23 22 22 22 23 23 23 23 23 24 23 23 23 22 22 22 21 20 19 18 18 17 17 16 15 14 14 14 13 13 13 13 14 14
26 26 26 26 26 25 24 24 24 24 25 25 25 24 24 24 24 24 25 25 24 23 23 22 22 22 21 19 19 18 17 17 17 16 15 15 14 14 14 14 14 14 14 14
27 28 28 27 27 27 27 26 26 26 26 26 26 25 25 25 25 25 25 25 24 23 23 22 22 21 20 19 18 17 17 17 16 15 15 15 15 15 15 14 14 14 15 15
Wind_Direction
254 260 265 272 277 284 292 291 289 289 290 293 296 297 297 296 297 298 299 299 302 302 300 299 301 302 301 301 303 304 304 304 305 305 302 302 301 295 291 287 284 282 283 283
260 269 282 284 280 284 290 290 289 291 294 296 298 295 297 298 298 299 297 298 299 299 302 302 302 301 301 302 303 305 303 303 306 307 305 302 300 297 292 291 289 286 283 282
272 285 287 284 281 283 285 286 290 292 294 295 296 295 296 300 300 300 301 300 299 299 302 304 304 304 302 301 303 305 304 305 309 312 309 304 300 298 295 295 290 286 284 284
276 283 286 288 286 291 290 289 290 293 295 297 297 296 296 298 299 300 304 305 302 303 304 305 307 306 304 302 303 305 306 311 313 316 313 309 305 304 301 297 293 290 289 287
277 279 284 290 290 293 294 294 293 295 294 295 298 298 298 298 300 301 303 305 305 306 309 309 308 307 308 307 305 308 311 317 319 318 314 313 311 309 306 302 297 296 293 290
278 282 288 292 295 296 299 296 294 294 295 295 299 299 300 300 300 300 302 304 303 306 310 312 311 309 310 312 309 308 310 317 317 315 314 312 312 310 309 307 300 296 295 293
276 285 293 297 298 300 299 299 295 294 296 297 299 298 301 301 300 301 305 306 307 310 312 312 312 312 315 316 313 312 314 315 315 315 315 313 313 312 310 309 306 303 303 300
278 288 295 298 298 301 300 298 296 296 299 299 299 300 302 300 303 304 306 308 311 314 315 316 317 320 320 321 317 314 315 316 316 316 316 315 314 311 311 310 308 308 308 305
281 289 293 297 298 302 301 299 298 298 299 299 301 302 302 301 304 306 307 308 311 315 315 315 318 321 320 321 320 318 317 318 319 320 320 319 319 316 314 311 310 309 307 307
287 291 296 297 297 301 301 300 298 300 302 303 304 305 305 303 304 305 306 309 311 313 314 314 315 319 321 322 325 323 322 321 321 323 323 322 322 322 321 317 314 313 312 312
289 293 297 297 297 298 297 296 298 300 302 304 306 307 307 305 305 307 309 311 312 312 313 314 315 318 318 319 322 322 321 319 319 321 322 321 323 323 321 319 319 319 318 315
292 295 298 297 296 295 294 294 295 298 301 301 303 306 305 306 306 309 311 313 313 313 314 313 315 317 316 316 318 319 321 321 321 323 323 323 323 323 322 321 322 323 323 321
296 296 298 297 296 296 294 294 295 297 299 301 303 306 305 305 306 308 310 313 314 315 315 315 315 315 315 315 315 317 319 323 323 321 321 324 326 325 325 323 323 322 323 325
295 297 297 299 299 299 297 295 295 297 299 301 303 304 305 303 304 306 309 313 314 315 315 314 312 311 312 313 314 316 319 324 325 322 321 322 325 326 326 325 324 323 325 328
294 296 295 297 298 298 297 295 295 297 299 301 302 302 305 305 304 305 310 313 314 316 316 313 312 314 315 314 316 318 319 323 326 325 323 323 325 327 327 327 326 326 327 328
293 294 293 296 300 297 296 295 296 296 297 301 302 300 301 303 305 308 311 313 314 315 317 318 317 317 319 317 318 320 320 322 323 324 323 325 328 327 326 327 326 325 326 327
293 296 296 297 299 298 298 298 294 294 298 299 299 299 300 302 303 306 309 313 314 314 316 317 318 317 316 318 320 322 323 323 323 324 324 326 327 326 325 325 325 324 327 329
292 293 295 298 298 296 299 298 297 297 297 299 298 299 299 302 304 307 309 310 311 312 313 315 318 318 317 319 319 321 321 321 321 321 321 322 323 323 322 322 323 326 326 326
290 293 295 297 298 297 296 296 297 297 300 300 301 300 299 300 302 305 307 309 310 311 312 313 314 315 318 320 320 319 317 317 317 318 319 319 320 321 320 320 321 323 325 324
286 290 292 294 294 295 295 294 297 298 299 298 298 300 299 299 299 300 303 305 306 308 309 310 311 311 313 314 315 316 314 314 313 313 314 316 317 318 318 318 321 322 324 326
283 285 288 290 291 292 295 295 296 297 297 296 298 299 298 299 301 301 302 303 303 303 304 306 306 308 309 310 310 312 312 311 310 310 312 314 313 315 316 315 319 320 322 324
281 283 284 286 287 289 294 295 296 297 296 297 298 299 299 299 299 300 301 302 301 301 302 303 304 306 307 308 308 309 310 311 311 310 310 310 310 311 314 314 315 318 319 321
278 280 282 283 285 287 290 292 294 295 296 296 297 298 298 299 300 300 301 302 301 300 301 301 303 305 305 306 306 306 307 308 310 310 309 308 308 310 312 314 316 317 317 320
277 278 278 280 281 284 287 290 291 292 294 295 295 296 297 299 301 302 302 302 300 298 297 298 299 302 303 303 302 302 303 304 307 307 305 303 304 307 309 310 314 318 320 322
276 276 276 278 281 283 286 287 287 289 291 292 293 294 295 297 299 301 301 301 299 297 297 297 296 298 298 299 300 298 298 299 302 301 300 300 300 303 303 304 308 312 317 319
274 276 277 278 279 281 283 285 285 285 286 289 291 291 293 296 298 299 299 300 298 297 297 297 295 295 295 296 295 294 295 296 297 296 296 299 299 301 302 302 304 309 313 316
Height
5848 5849 5848 5848 5848 5848 5847 5846 5845 5845 5844 5843 5842 5841 5840 5839 5837 5836 5835 5833 5831 5828 5826 5823 5821 5819 5816 5814 5811 5808 5806 5803 5800 5797 5795 5792 5790 5788 5786 5784 5783 5783 5782 5781
5849 5848 5848 5847 5846 5846 5845 5844 5844 5843 5842 5841 5840 5839 5838 5836 5835 5833 5831 5829 5827 5825 5822 5819 5816 5813 5811 5808 5806 5804 5801 5798 5795 5792 5789 5787 5784 5782 5781 5780 5778 5777 5777 5776
5847 5848 5846 5845 5844 5844 5843 5843 5842 5841 5840 5839 5838 5837 5835 5834 5831 5830 5828 5826 5824 5821 5818 5815 5811 5809 5806 5804 5801 5799 5796 5793 5791 5787 5784 5781 5779 5777 5776 5775 5774 5773 5772 5772
5846 5846 5845 5843 5842 5842 5841 5840 5839 5838 5837 5836 5836 5834 5833 5831 5829 5827 5824 5822 5819 5817 5814 5811 5808 5805 5802 5800 5797 5795 5792 5789 5786 5783 5780 5777 5776 5774 5773 5771 5771 5769 5768 5767
5845 5844 5843 5842 5841 5840 5839 5838 5837 5835 5834 5833 5832 5831 5830 5827 5825 5823 5821 5818 5815 5813 5810 5807 5804 5801 5799 5796 5793 5791 5788 5785 5783 5780 5778 5775 5773 5771 5769 5768 5767 5765 5764 5763
5843 5843 5841 5840 5839 5838 5836 5835 5834 5832 5831 5830 5829 5828 5826 5824 5822 5820 5817 5814 5811 5809 5806 5803 5800 5798 5795 5792 5789 5787 5785 5782 5780 5778 5775 5772 5770 5768 5766 5765 5763 5762 5760 5758
5841 5840 5839 5837 5836 5835 5834 5833 5831 5829 5828 5827 5826 5824 5823 5820 5818 5816 5813 5810 5808 5805 5803 5800 5797 5795 5792 5789 5786 5784 5782 5779 5777 5774 5772 5769 5767 5765 5763 5761 5759 5757 5756 5754
5839 5838 5837 5835 5834 5832 5830 5829 5828 5826 5825 5824 5822 5820 5819 5817 5815 5812 5810 5807 5805 5803 5800 5797 5794 5792 5789 5786 5783 5781 5779 5776 5774 5771 5768 5766 5764 5762 5760 5757 5756 5753 5751 5750
5837 5836 5834 5832 5831 5829 5827 5825 5824 5823 5821 5820 5818 5817 5815 5813 5811 5809 5807 5804 5802 5799 5797 5794 5791 5789 5786 5783 5780 5777 5775 5773 5771 5768 5765 5763 5760 5758 5756 5754 5752 5750 5748 5745
5834 5833 5832 5830 5828 5826 5824 5822 5821 5819 5817 5815 5815 5813 5812 5809 5807 5805 5803 5801 5798 5796 5793 5791 5788 5785 5782 5780 5777 5774 5772 5770 5768 5765 5763 5760 5757 5755 5753 5751 5748 5746 5744 5741
5831 5830 5829 5827 5825 5823 5822 5820 5817 5816 5814 5812 5810 5811 5808 5806 5803 5801 5799 5797 5794 5792 5789 5787 5784 5781 5778 5776 5773 5771 5768 5766 5764 5762 5760 5757 5754 5752 5750 5748 5745 5743 5740 5738
5828 5827 5825 5823 5821 5819 5817 5816 5814 5813 5811 5809 5807 5809 5804 5802 5800 5798 5796 5793 5791 5788 5786 5783 5780 5777 5775 5772 5770 5767 5765 5763 5760 5758 5756 5754 5751 5749 5746 5744 5742 5739 5737 5734
5825 5823 5822 5820 5820 5817 5814 5812 5810 5809 5807 5806 5804 5806 5801 5799 5797 5795 5792 5790 5788 5785 5782 5779 5776 5773 5771 5768 5766 5764 5762 5759 5757 5755 5753 5751 5748 5746 5744 5741 5739 5736 5733 5730
5821 5819 5818 5817 5814 5812 5810 5808 5807 5805 5804 5802 5801 5800 5798 5796 5794 5792 5790 5787 5784 5782 5778 5775 5772 5770 5767 5765 5763 5761 5759 5756 5754 5751 5749 5748 5746 5744 5741 5738 5736 5733 5730 5727
5817 5816 5814 5812 5810 5808 5807 5805 5804 5802 5800 5799 5798 5796 5795 5793 5791 5789 5786 5784 5781 5778 5775 5772 5769 5767 5764 5762 5760 5758 5755 5753 5751 5749 5747 5745 5743 5741 5738 5736 5733 5731 5728 5725
5813 5812 5810 5809 5807 5805 5803 5802 5800 5799 5797 5796 5794 5793 5791 5789 5787 5785 5783 5781 5778 5775 5772 5769 5767 5765 5762 5760 5757 5755 5753 5751 5748 5746 5744 5742 5740 5738 5736 5734 5731 5729 5726 5724
5810 5808 5807 5806 5804 5802 5801 5799 5797 5796 5794 5793 5791 5790 5788 5786 5784 5782 5780 5777 5775 5772 5770 5767 5764 5762 5760 5757 5755 5753 5751 5748 5746 5744 5742 5740 5738 5736 5734 5732 5729 5727 5724 5722
5806 5805 5803 5802 5801 5799 5799 5796 5794 5792 5791 5789 5787 5786 5784 5783 5780 5778 5776 5774 5772 5769 5767 5765 5762 5760 5757 5755 5753 5751 5748 5746 5743 5741 5739 5737 5736 5734 5732 5730 5727 5725 5723 5720
5802 5801 5799 5798 5796 5795 5794 5792 5790 5789 5788 5786 5784 5782 5781 5779 5777 5775 5773 5771 5768 5766 5764 5762 5759 5757 5755 5753 5750 5748 5746 5744 5741 5739 5737 5735 5734 5732 5730 5727 5725 5723 5721 5718
5797 5796 5796 5794 5792 5791 5791 5789 5787 5786 5784 5783 5780 5778 5777 5775 5774 5772 5769 5767 5765 5762 5760 5758 5756 5754 5752 5750 5747 5745 5743 5741 5739 5737 5735 5733 5731 5729 5727 5725 5723 5720 5718 5716
5793 5791 5790 5789 5787 5786 5786 5784 5784 5783 5782 5779 5776 5774 5773 5771 5769 5768 5765 5762 5760 5758 5756 5754 5752 5750 5749 5747 5744 5742 5740 5738 5736 5734 5732 5730 5728 5726 5724 5722 5720 5718 5716 5713
5787 5786 5785 5784 5783 5784 5781 5780 5779 5778 5776 5774 5772 5770 5768 5766 5764 5762 5760 5758 5756 5754 5752 5750 5748 5747 5745 5743 5741 5738 5736 5734 5732 5730 5729 5727 5725 5723 5721 5719 5717 5715 5713 5710
5781 5781 5780 5780 5780 5777 5776 5775 5774 5772 5770 5769 5767 5765 5763 5762 5759 5757 5755 5753 5751 5749 5747 5745 5744 5742 5740 5738 5736 5734 5733 5731 5729 5727 5725 5723 5721 5720 5718 5716 5714 5712 5710 5707
5775 5774 5773 5773 5772 5771 5770 5769 5768 5766 5765 5763 5762 5760 5758 5756 5754 5752 5750 5748 5745 5743 5742 5740 5739 5737 5735 5733 5732 5730 5728 5726 5725 5723 5721 5720 5718 5717 5715 5713 5711 5709 5707 5704
5768 5767 5766 5766 5766 5765 5764 5763 5761 5760 5759 5757 5756 5754 5752 5750 5748 5746 5744 5742 5740 5738 5736 5735 5733 5731 5730 5728 5727 5725 5724 5722 5721 5719 5717 5716 5714 5713 5711 5710 5708 5706 5703 5701
5761 5760 5759 5759 5759 5758 5758 5756 5755 5754 5752 5751 5749 5748 5746 5744 5742 5740 5738 5736 5734 5732 5731 5729 5727 5726 5724 5723 5721 5720 5719 5717 5716 5715 5713 5712 5710 5709 5707 5706 5704 5702 5700 5697